WXM80 ListenWXM80 Stop

You find our weather info also at:

UK Metoffice

WeatherCloud

Weather Underground

Northeastern Weather Network

AWEKAS

Citizen Weather Observer Program (CWOP)

HAMweather, WeatherForYou, PWS Weather


Weather Underground History page Text

Daily Summary for June 12, 2017 Units:  English    Metric   Both
« Previous Day
Next Day »
Daily Weekly Monthly Yearly Custom
  High: Low: Average:
Temperature: 98.4 °F 71.7 °F 84.2 °F
Dew Point: 72.5 °F 64.8 °F 67.1 °F
Humidity: 80 % 35 % 59 %
Wind Speed: 6.0 mph 0.0 mph 1.7 mph
Wind Gust: 9.2 mph - -
Wind:- - SW
Pressure: 29.99 in 29.86 in -
Precipitation: 0.00 in    
Historical Graphs
 
 
Tabular Data for June 12, 2017
Time Temperature Dew Point Pressure Wind Wind Speed Wind Gust Humidity Rainfall Rate (Hourly)
00:04 75.4 °F 65.3 °F 29.95 in SW 2.1 mph 3.5 mph 71 % 0.00 in
00:09 75.5 °F 65.4 °F 29.95 in South 0.5 mph 4.6 mph 71 % 0.00 in
00:14 75.5 °F 65.4 °F 29.94 in SW 2.3 mph 3.5 mph 71 % 0.00 in
00:19 75.6 °F 65.5 °F 29.94 in WSW 0.9 mph 2.0 mph 71 % 0.00 in
00:24 75.6 °F 65.5 °F 29.94 in Calm   1.2 mph 71 % 0.00 in
00:29 75.7 °F 65.6 °F 29.95 in WSW 1.2 mph 4.6 mph 71 % 0.00 in
00:34 75.8 °F 65.7 °F 29.95 in SW 1.4 mph 2.3 mph 71 % 0.00 in
00:39 75.9 °F 65.8 °F 29.95 in SW 0.4 mph 1.2 mph 71 % 0.00 in
00:44 75.9 °F 65.8 °F 29.95 in SSW 2.9 mph 3.5 mph 71 % 0.00 in
00:49 75.9 °F 65.8 °F 29.95 in SW 0.7 mph 1.2 mph 71 % 0.00 in
01:00 75.9 °F 65.8 °F 29.95 in SW 1.1 mph 2.3 mph 71 % 0.00 in
01:05 75.9 °F 65.8 °F 29.94 in SW 1.7 mph 3.5 mph 71 % 0.00 in
01:10 75.9 °F 65.8 °F 29.94 in SW 1.2 mph 3.5 mph 71 % 0.00 in
01:15 75.8 °F 65.7 °F 29.95 in SW 1.6 mph 3.5 mph 71 % 0.00 in
01:20 75.8 °F 66.1 °F 29.94 in SW 0.7 mph 3.0 mph 72 % 0.00 in
01:21 75.8 °F 66.1 °F 29.94 in SW 0.5 mph 3.5 mph 72 % 0.00 in
01:26 75.7 °F 66.0 °F 29.94 in SW 1.3 mph 3.0 mph 72 % 0.00 in
01:31 75.7 °F 66.0 °F 29.94 in SW 2.2 mph 3.5 mph 72 % 0.00 in
01:36 75.7 °F 66.0 °F 29.94 in SW 0.9 mph 3.5 mph 72 % 0.00 in
01:42 75.7 °F 66.0 °F 29.94 in SW 3.9 mph 8.1 mph 72 % 0.00 in
01:47 75.6 °F 65.9 °F 29.94 in WSW 2.7 mph 3.5 mph 72 % 0.00 in
01:52 75.6 °F 65.9 °F 29.94 in SSW 3.1 mph 4.0 mph 72 % 0.00 in
01:57 75.6 °F 65.9 °F 29.94 in WSW 2.2 mph 3.5 mph 72 % 0.00 in
01:58 75.6 °F 65.9 °F 29.94 in WSW 0.6 mph 3.5 mph 72 % 0.00 in
02:03 75.6 °F 65.9 °F 29.94 in SW 0.2 mph 3.5 mph 72 % 0.00 in
02:09 75.6 °F 66.3 °F 29.94 in SSW 2.2 mph 4.6 mph 73 % 0.00 in
02:14 75.5 °F 66.2 °F 29.94 in SW 2.4 mph 3.5 mph 73 % 0.00 in
02:19 75.5 °F 66.2 °F 29.93 in SSW 1.3 mph 3.5 mph 73 % 0.00 in
02:24 75.4 °F 66.1 °F 29.93 in SW 1.6 mph 4.6 mph 73 % 0.00 in
02:29 75.4 °F 66.1 °F 29.93 in SW 0.1 mph 1.2 mph 73 % 0.00 in
02:34 75.3 °F 66.0 °F 29.93 in SW 2.3 mph 3.5 mph 73 % 0.00 in
02:39 75.3 °F 66.0 °F 29.93 in SW 1.5 mph 3.5 mph 73 % 0.00 in
02:44 75.1 °F 66.2 °F 29.93 in WSW 2.5 mph 3.5 mph 74 % 0.00 in
02:49 75.0 °F 66.1 °F 29.93 in SW 0.5 mph 3.0 mph 74 % 0.00 in
02:54 74.9 °F 66.1 °F 29.94 in SW 1.6 mph 3.5 mph 74 % 0.00 in
02:59 74.9 °F 66.1 °F 29.94 in SW 0.6 mph 2.3 mph 74 % 0.00 in
03:04 74.8 °F 66.0 °F 29.94 in SW 0.3 mph 2.3 mph 74 % 0.00 in
03:09 74.7 °F 65.9 °F 29.93 in SW 0.4 mph 1.2 mph 74 % 0.00 in
03:14 74.6 °F 65.8 °F 29.94 in SW 0.4 mph 1.2 mph 74 % 0.00 in
03:19 74.5 °F 66.1 °F 29.94 in SW 0.5 mph 2.3 mph 75 % 0.00 in
03:24 74.4 °F 66.0 °F 29.94 in SW 1.7 mph 3.5 mph 75 % 0.00 in
03:26 74.4 °F 66.0 °F 29.93 in Calm   1.2 mph 75 % 0.00 in
03:31 74.2 °F 65.8 °F 29.94 in Calm   3.5 mph 75 % 0.00 in
03:36 74.1 °F 65.7 °F 29.94 in Calm   2.3 mph 75 % 0.00 in
03:41 74.0 °F 66.0 °F 29.94 in SW 0.9 mph 2.3 mph 76 % 0.00 in
03:46 73.9 °F 65.9 °F 29.94 in SW 0.4 mph 3.5 mph 76 % 0.00 in
03:51 73.8 °F 65.8 °F 29.94 in WSW 0.5 mph 2.3 mph 76 % 0.00 in
03:56 73.7 °F 65.7 °F 29.94 in WSW 1.3 mph 3.5 mph 76 % 0.00 in
04:01 73.7 °F 66.0 °F 29.95 in WSW 0.7 mph 2.3 mph 77 % 0.00 in
04:06 73.5 °F 65.8 °F 29.95 in WSW 0.9 mph 3.5 mph 77 % 0.00 in
04:11 73.5 °F 65.8 °F 29.95 in SW 1.2 mph 2.0 mph 77 % 0.00 in
04:16 73.4 °F 65.7 °F 29.95 in WSW 1.1 mph 2.0 mph 77 % 0.00 in
04:21 73.3 °F 65.7 °F 29.95 in WSW 0.8 mph 3.5 mph 77 % 0.00 in
04:27 73.3 °F 65.7 °F 29.94 in SW 2.4 mph 3.5 mph 77 % 0.00 in
04:32 73.2 °F 65.9 °F 29.94 in SW 2.1 mph 4.6 mph 78 % 0.00 in
04:37 73.1 °F 65.8 °F 29.95 in SW 1.9 mph 3.5 mph 78 % 0.00 in
04:42 73.0 °F 65.7 °F 29.95 in SW 2.1 mph 3.5 mph 78 % 0.00 in
04:47 72.9 °F 65.6 °F 29.96 in SSW 2.0 mph 3.5 mph 78 % 0.00 in
04:52 72.8 °F 65.5 °F 29.96 in SW 2.8 mph 3.5 mph 78 % 0.00 in
04:57 72.7 °F 65.8 °F 29.96 in SW 1.3 mph 3.5 mph 79 % 0.00 in
05:02 72.6 °F 65.3 °F 29.96 in SW 0.7 mph 3.5 mph 78 % 0.00 in
05:07 72.5 °F 65.2 °F 29.96 in SW 0.8 mph 2.3 mph 78 % 0.00 in
05:12 72.4 °F 65.5 °F 29.96 in SW 1.8 mph 2.3 mph 79 % 0.00 in
05:17 72.2 °F 65.3 °F 29.96 in WSW 2.0 mph 4.0 mph 79 % 0.00 in
05:22 72.1 °F 65.2 °F 29.96 in SSW 2.1 mph 3.5 mph 79 % 0.00 in
05:27 72.0 °F 65.1 °F 29.96 in SSW 2.6 mph 5.8 mph 79 % 0.00 in
05:32 71.9 °F 65.4 °F 29.96 in SW 2.3 mph 3.5 mph 80 % 0.00 in
05:37 71.8 °F 64.9 °F 29.97 in SW 2.3 mph 3.5 mph 79 % 0.00 in
05:42 71.8 °F 65.3 °F 29.97 in SW 2.2 mph 3.5 mph 80 % 0.00 in
05:47 71.7 °F 64.8 °F 29.97 in SSW 2.3 mph 3.5 mph 79 % 0.00 in
05:52 71.7 °F 64.8 °F 29.97 in SW 1.4 mph 3.5 mph 79 % 0.00 in
05:57 71.7 °F 64.8 °F 29.97 in SW 2.2 mph 3.5 mph 79 % 0.00 in
06:02 71.7 °F 64.8 °F 29.98 in WSW 2.3 mph 3.5 mph 79 % 0.00 in
06:07 71.8 °F 64.9 °F 29.98 in SW 2.6 mph 4.0 mph 79 % 0.00 in
06:12 71.8 °F 64.9 °F 29.98 in SW 2.9 mph 4.0 mph 79 % 0.00 in
06:17 71.9 °F 65.0 °F 29.98 in SW 3.2 mph 4.0 mph 79 % 0.00 in
06:22 72.0 °F 65.1 °F 29.99 in SW 2.9 mph 4.0 mph 79 % 0.00 in
06:27 72.1 °F 65.2 °F 29.98 in SW 3.1 mph 3.5 mph 79 % 0.00 in
06:32 72.3 °F 65.1 °F 29.99 in SW 3.0 mph 6.9 mph 78 % 0.00 in
06:37 72.6 °F 65.0 °F 29.99 in SW 1.9 mph 3.5 mph 77 % 0.00 in
06:42 72.9 °F 65.3 °F 29.99 in SW 2.7 mph 3.5 mph 77 % 0.00 in
06:47 73.2 °F 65.6 °F 29.99 in SW 2.8 mph 4.0 mph 77 % 0.00 in
06:52 73.5 °F 65.8 °F 29.99 in SW 2.7 mph 4.0 mph 77 % 0.00 in
06:57 73.9 °F 65.9 °F 29.99 in SW 3.3 mph 4.0 mph 76 % 0.00 in
07:02 74.3 °F 65.9 °F 29.99 in SW 3.1 mph 4.0 mph 75 % 0.00 in
07:07 74.7 °F 65.9 °F 29.98 in SW 3.0 mph 4.0 mph 74 % 0.00 in
07:12 75.1 °F 65.9 °F 29.98 in SSW 3.7 mph 6.9 mph 73 % 0.00 in
07:17 75.7 °F 66.0 °F 29.99 in SW 3.5 mph 5.8 mph 72 % 0.00 in
07:23 76.1 °F 66.4 °F 29.99 in SW 3.4 mph 4.6 mph 72 % 0.00 in
07:28 76.6 °F 66.5 °F 29.99 in West 1.5 mph 3.5 mph 71 % 0.00 in
07:33 77.0 °F 66.0 °F 29.99 in SSW 2.9 mph 7.0 mph 69 % 0.00 in
07:35 77.2 °F 65.8 °F 29.99 in WNW 3.2 mph 6.9 mph 68 % 0.00 in
07:39 77.5 °F 66.5 °F 29.99 in SW 3.6 mph 5.8 mph 69 % 0.00 in
07:45 77.8 °F 66.4 °F 29.99 in West 2.3 mph 3.5 mph 68 % 0.00 in
07:50 78.0 °F 65.7 °F 29.99 in West 3.2 mph 4.6 mph 66 % 0.00 in
07:55 78.2 °F 65.9 °F 29.99 in WSW 1.0 mph 3.5 mph 66 % 0.00 in
08:00 78.3 °F 66.0 °F 29.99 in SW 2.7 mph 6.0 mph 66 % 0.00 in
08:05 78.5 °F 65.8 °F 29.99 in WSW 4.5 mph 6.9 mph 65 % 0.00 in
08:10 78.7 °F 65.9 °F 29.99 in WSW 2.7 mph 5.0 mph 65 % 0.00 in
08:15 78.8 °F 66.0 °F 29.99 in West 2.5 mph 5.8 mph 65 % 0.00 in
08:20 79.0 °F 66.2 °F 29.99 in West 4.1 mph 5.8 mph 65 % 0.00 in
08:25 79.1 °F 66.8 °F 29.99 in WSW 1.0 mph 3.5 mph 66 % 0.00 in
08:30 79.3 °F 66.1 °F 29.99 in SW 2.7 mph 3.5 mph 64 % 0.00 in
08:35 79.5 °F 66.7 °F 29.99 in WSW 2.7 mph 8.0 mph 65 % 0.00 in
08:40 79.8 °F 66.1 °F 29.99 in WSW 3.1 mph 5.8 mph 63 % 0.00 in
08:45 80.0 °F 66.7 °F 29.99 in SSW 2.1 mph 5.0 mph 64 % 0.00 in
08:50 80.2 °F 66.5 °F 29.99 in SW 2.8 mph 4.0 mph 63 % 0.00 in
08:55 80.3 °F 66.6 °F 29.99 in WNW 3.2 mph 4.6 mph 63 % 0.00 in
09:00 80.5 °F 65.8 °F 29.99 in SW 4.6 mph 6.0 mph 61 % 0.00 in
09:05 80.7 °F 66.0 °F 29.99 in WSW 3.6 mph 5.8 mph 61 % 0.00 in
09:10 80.8 °F 66.1 °F 29.99 in West 1.0 mph 4.6 mph 61 % 0.00 in
09:15 80.9 °F 66.2 °F 29.98 in SW 3.3 mph 4.6 mph 61 % 0.00 in
09:20 81.0 °F 66.3 °F 29.98 in WSW 3.3 mph 5.8 mph 61 % 0.00 in
09:26 81.2 °F 66.0 °F 29.98 in WSW 2.0 mph 6.0 mph 60 % 0.00 in
09:31 81.4 °F 66.7 °F 29.98 in WSW 3.0 mph 6.0 mph 61 % 0.00 in
09:36 81.6 °F 66.4 °F 29.98 in SW 3.0 mph 8.0 mph 60 % 0.00 in
09:39 81.8 °F 66.6 °F 29.98 in WSW 3.8 mph 4.6 mph 60 % 0.00 in
09:44 82.4 °F 67.1 °F 29.97 in WSW 3.8 mph 9.2 mph 60 % 0.00 in
09:49 83.1 °F 67.3 °F 29.98 in West 5.8 mph 8.1 mph 59 % 0.00 in
09:54 83.9 °F 68.5 °F 29.97 in SW 3.5 mph 6.0 mph 60 % 0.00 in
09:59 84.7 °F 68.3 °F 29.97 in West 3.1 mph 5.8 mph 58 % 0.00 in
10:04 85.6 °F 68.1 °F 29.97 in WNW 2.1 mph 3.5 mph 56 % 0.00 in
10:09 86.3 °F 68.8 °F 29.97 in WNW 0.6 mph 4.6 mph 56 % 0.00 in
10:14 87.2 °F 68.0 °F 29.97 in WNW 2.7 mph 6.0 mph 53 % 0.00 in
10:19 88.0 °F 69.3 °F 29.97 in SW 0.7 mph 4.6 mph 54 % 0.00 in
10:24 88.8 °F 68.9 °F 29.97 in WNW 3.6 mph 5.8 mph 52 % 0.00 in
10:29 89.6 °F 70.2 °F 29.97 in West 2.0 mph 5.8 mph 53 % 0.00 in
10:34 90.2 °F 69.0 °F 29.97 in West 2.3 mph 3.5 mph 50 % 0.00 in
10:39 90.8 °F 70.7 °F 29.96 in WNW 3.4 mph 4.6 mph 52 % 0.00 in
10:44 91.4 °F 70.7 °F 29.97 in NW 1.3 mph 3.5 mph 51 % 0.00 in
10:49 91.9 °F 69.4 °F 29.96 in NW 5.2 mph 7.0 mph 48 % 0.00 in
10:54 92.2 °F 69.7 °F 29.96 in NW 0.8 mph 3.5 mph 48 % 0.00 in
10:59 92.6 °F 69.4 °F 29.96 in North 1.7 mph 4.0 mph 47 % 0.00 in
11:04 92.9 °F 69.7 °F 29.96 in WNW 3.8 mph 5.8 mph 47 % 0.00 in
11:09 93.3 °F 70.1 °F 29.96 in WNW 3.5 mph 5.8 mph 47 % 0.00 in
11:14 93.7 °F 72.3 °F 29.96 in NE 1.5 mph 4.6 mph 50 % 0.00 in
11:19 94.0 °F 71.3 °F 29.96 in North 1.9 mph 3.5 mph 48 % 0.00 in
11:24 94.1 °F 69.5 °F 29.97 in NW 1.4 mph 3.0 mph 45 % 0.00 in
11:29 94.1 °F 70.2 °F 29.96 in NW 2.0 mph 3.5 mph 46 % 0.00 in
11:34 94.1 °F 69.5 °F 29.96 in North 2.8 mph 6.0 mph 45 % 0.00 in
11:39 94.0 °F 71.3 °F 29.96 in NW 0.7 mph 3.5 mph 48 % 0.00 in
11:44 94.0 °F 68.8 °F 29.96 in WNW 2.7 mph 6.9 mph 44 % 0.00 in
11:49 94.2 °F 70.2 °F 29.96 in WNW 2.6 mph 4.0 mph 46 % 0.00 in
11:54 94.3 °F 70.3 °F 29.95 in NNE 2.0 mph 3.5 mph 46 % 0.00 in
11:59 94.4 °F 69.8 °F 29.96 in NW 1.7 mph 4.6 mph 45 % 0.00 in
12:04 94.6 °F 72.5 °F 29.96 in WNW 2.3 mph 7.0 mph 49 % 0.00 in
12:10 94.8 °F 70.1 °F 29.96 in North 3.2 mph 3.5 mph 45 % 0.00 in
12:15 94.8 °F 70.1 °F 29.95 in WNW 3.0 mph 3.0 mph 45 % 0.00 in
12:20 94.9 °F 68.2 °F 29.95 in NW 1.9 mph 4.0 mph 42 % 0.00 in
12:25 95.0 °F 69.7 °F 29.95 in WNW 2.4 mph 5.8 mph 44 % 0.00 in
12:30 95.1 °F 69.8 °F 29.95 in NW 3.4 mph 5.8 mph 44 % 0.00 in
12:35 95.2 °F 70.5 °F 29.95 in North 1.4 mph 7.0 mph 45 % 0.00 in
12:40 95.4 °F 70.0 °F 29.95 in WNW 2.8 mph 5.8 mph 44 % 0.00 in
12:45 95.5 °F 70.8 °F 29.95 in NE 3.2 mph 5.8 mph 45 % 0.00 in
12:50 95.6 °F 68.8 °F 29.95 in WNW 1.7 mph 5.8 mph 42 % 0.00 in
12:55 95.7 °F 68.9 °F 29.95 in NNE 2.7 mph 4.6 mph 42 % 0.00 in
13:00 95.8 °F 68.3 °F 29.95 in NW 3.0 mph 8.1 mph 41 % 0.00 in
13:05 96.0 °F 69.2 °F 29.95 in West 1.8 mph 4.0 mph 42 % 0.00 in
13:10 96.1 °F 68.6 °F 29.94 in ENE 3.7 mph 5.8 mph 41 % 0.00 in
13:15 95.9 °F 67.7 °F 29.94 in NNE 3.7 mph 5.0 mph 40 % 0.00 in
13:20 95.9 °F 69.1 °F 29.94 in NE 1.2 mph 5.8 mph 42 % 0.00 in
13:25 96.0 °F 67.0 °F 29.94 in NNW 3.8 mph 5.0 mph 39 % 0.00 in
13:30 96.2 °F 68.7 °F 29.94 in North 2.8 mph 4.6 mph 41 % 0.00 in
13:35 96.4 °F 69.6 °F 29.94 in WNW 1.4 mph 3.5 mph 42 % 0.00 in
13:40 96.6 °F 69.7 °F 29.94 in NW 0.7 mph 2.3 mph 42 % 0.00 in
13:45 96.9 °F 67.8 °F 29.93 in NW 1.3 mph 2.3 mph 39 % 0.00 in
13:50 97.1 °F 70.9 °F 29.93 in NW 0.1 mph 2.3 mph 43 % 0.00 in
13:55 97.3 °F 69.7 °F 29.93 in NW 0.8 mph 3.5 mph 41 % 0.00 in
14:00 97.7 °F 70.7 °F 29.92 in NW 0.4 mph 2.3 mph 42 % 0.00 in
14:05 97.9 °F 71.6 °F 29.92 in WNW 1.6 mph 4.0 mph 43 % 0.00 in
14:11 98.2 °F 70.5 °F 29.92 in NNE 2.0 mph 4.6 mph 41 % 0.00 in
14:16 98.2 °F 70.5 °F 29.92 in NNE 1.0 mph 3.0 mph 41 % 0.00 in
14:21 98.3 °F 71.3 °F 29.92 in NNE 1.0 mph 5.0 mph 42 % 0.00 in
14:26 98.4 °F 70.6 °F 29.92 in Calm   5.0 mph 41 % 0.00 in
14:31 98.2 °F 71.2 °F 29.91 in Calm   4.0 mph 42 % 0.00 in
14:36 98.2 °F 69.0 °F 29.91 in North 3.0 mph 5.0 mph 39 % 0.00 in
14:41 98.2 °F 69.0 °F 29.90 in West 1.0 mph 6.0 mph 39 % 0.00 in
14:45 98.3 °F 69.8 °F 29.90 in SW 5.1 mph 5.8 mph 40 % 0.00 in
14:50 98.3 °F 69.8 °F 29.90 in West 1.8 mph 5.8 mph 40 % 0.00 in
14:56 98.4 °F 66.8 °F 29.90 in WSW 3.0 mph 8.0 mph 36 % 0.00 in
15:01 98.3 °F 67.6 °F 29.90 in WSW 4.7 mph 6.9 mph 37 % 0.00 in
15:06 98.3 °F 66.8 °F 29.90 in SSW 6.0 mph 8.1 mph 36 % 0.00 in
15:11 98.1 °F 68.2 °F 29.90 in WNW 3.0 mph 5.8 mph 38 % 0.00 in
15:16 98.2 °F 68.2 °F 29.90 in WSW 3.5 mph 5.0 mph 38 % 0.00 in
15:21 98.2 °F 69.0 °F 29.90 in WNW 2.9 mph 5.8 mph 39 % 0.00 in
15:26 98.2 °F 67.5 °F 29.90 in SW 4.6 mph 9.2 mph 37 % 0.00 in
15:31 98.2 °F 67.5 °F 29.90 in NW 2.1 mph 3.5 mph 37 % 0.00 in
15:36 98.3 °F 68.3 °F 29.90 in WSW 3.0 mph 5.0 mph 38 % 0.00 in
15:41 98.3 °F 69.8 °F 29.89 in West 2.7 mph 4.0 mph 40 % 0.00 in
15:46 98.2 °F 66.7 °F 29.89 in NW 2.5 mph 4.6 mph 36 % 0.00 in
15:51 98.2 °F 67.5 °F 29.89 in SW 1.6 mph 6.0 mph 37 % 0.00 in
15:56 98.2 °F 67.5 °F 29.89 in NNW 4.0 mph 6.0 mph 37 % 0.00 in
16:01 98.2 °F 66.7 °F 29.89 in SSW 2.5 mph 6.9 mph 36 % 0.00 in
16:06 98.3 °F 67.6 °F 29.89 in WSW 1.3 mph 6.0 mph 37 % 0.00 in
16:11 98.3 °F 66.8 °F 29.89 in West 3.3 mph 4.6 mph 36 % 0.00 in
16:16 98.3 °F 65.9 °F 29.89 in West 2.6 mph 3.5 mph 35 % 0.00 in
16:22 98.3 °F 66.8 °F 29.89 in SSW 2.4 mph 3.5 mph 36 % 0.00 in
16:27 98.2 °F 66.7 °F 29.89 in WSW 3.4 mph 6.9 mph 36 % 0.00 in
16:32 98.1 °F 66.6 °F 29.89 in WSW 3.2 mph 6.9 mph 36 % 0.00 in
16:37 97.9 °F 66.4 °F 29.88 in SSW 4.2 mph 6.9 mph 36 % 0.00 in
16:42 97.8 °F 67.9 °F 29.88 in SSW 2.1 mph 3.5 mph 38 % 0.00 in
16:47 97.7 °F 67.8 °F 29.88 in SSW 4.8 mph 6.9 mph 38 % 0.00 in
16:52 97.5 °F 67.6 °F 29.88 in SW 0.6 mph 3.5 mph 38 % 0.00 in
16:57 97.3 °F 68.9 °F 29.87 in SSW 4.0 mph 6.0 mph 40 % 0.00 in
17:02 96.9 °F 67.8 °F 29.87 in South 3.3 mph 6.0 mph 39 % 0.00 in
17:07 96.5 °F 69.7 °F 29.88 in WSW 1.5 mph 1.5 mph 42 % 0.00 in
17:12 96.2 °F 68.7 °F 29.87 in SW 0.5 mph 3.5 mph 41 % 0.00 in
17:17 95.8 °F 69.0 °F 29.87 in WSW 0.9 mph 3.5 mph 42 % 0.00 in
17:22 95.4 °F 68.0 °F 29.87 in SE 0.5 mph 3.5 mph 41 % 0.00 in
17:27 94.9 °F 67.5 °F 29.88 in SW 0.5 mph 3.0 mph 41 % 0.00 in
17:32 94.4 °F 68.5 °F 29.87 in SE 1.1 mph 3.0 mph 43 % 0.00 in
17:38 93.9 °F 68.7 °F 29.87 in SW 0.9 mph 3.5 mph 44 % 0.00 in
17:43 93.3 °F 67.5 °F 29.87 in SSW 2.6 mph 4.6 mph 43 % 0.00 in
17:48 92.9 °F 67.8 °F 29.87 in SSW 0.8 mph 3.5 mph 44 % 0.00 in
17:53 92.6 °F 67.5 °F 29.87 in SE 0.6 mph 5.0 mph 44 % 0.00 in
17:58 92.2 °F 67.8 °F 29.87 in SSW 1.8 mph 3.5 mph 45 % 0.00 in
18:03 91.8 °F 67.4 °F 29.87 in SSW 0.2 mph 2.3 mph 45 % 0.00 in
18:08 91.5 °F 67.8 °F 29.86 in SSE 0.8 mph 2.3 mph 46 % 0.00 in
18:13 91.2 °F 67.5 °F 29.86 in SW 0.7 mph 3.0 mph 46 % 0.00 in
18:18 90.9 °F 67.3 °F 29.86 in SSW 0.8 mph 3.5 mph 46 % 0.00 in
18:23 90.6 °F 67.0 °F 29.86 in SSE 0.4 mph 2.3 mph 46 % 0.00 in
18:28 90.3 °F 67.3 °F 29.86 in ESE 0.5 mph 5.0 mph 47 % 0.00 in
18:33 90.0 °F 67.1 °F 29.87 in SSW 0.6 mph 2.3 mph 47 % 0.00 in
18:38 89.8 °F 67.5 °F 29.87 in WSW 0.8 mph 2.3 mph 48 % 0.00 in
18:43 89.6 °F 67.9 °F 29.87 in SSW 1.2 mph 3.5 mph 49 % 0.00 in
18:48 89.3 °F 67.0 °F 29.87 in SW 1.4 mph 3.5 mph 48 % 0.00 in
18:53 89.2 °F 67.5 °F 29.87 in WSW 0.6 mph 2.3 mph 49 % 0.00 in
18:58 88.9 °F 67.3 °F 29.87 in Calm   1.2 mph 49 % 0.00 in
19:03 88.7 °F 67.1 °F 29.87 in WSW 0.3 mph 3.5 mph 49 % 0.00 in
19:08 88.5 °F 66.9 °F 29.87 in South 1.2 mph 2.3 mph 49 % 0.00 in
19:13 88.3 °F 67.3 °F 29.87 in South 0.1 mph 1.2 mph 50 % 0.00 in
19:18 88.2 °F 67.2 °F 29.87 in SW 0.6 mph 2.3 mph 50 % 0.00 in
19:23 88.0 °F 67.6 °F 29.87 in SW 0.6 mph 2.0 mph 51 % 0.00 in
19:28 87.8 °F 67.4 °F 29.87 in SW 0.1 mph 1.2 mph 51 % 0.00 in
19:33 87.6 °F 67.2 °F 29.87 in SW 1.1 mph 2.3 mph 51 % 0.00 in
19:38 87.4 °F 67.6 °F 29.87 in SW 0.2 mph 1.2 mph 52 % 0.00 in
19:39 87.4 °F 67.6 °F 29.87 in Calm   1.2 mph 52 % 0.00 in
19:44 87.1 °F 67.3 °F 29.87 in Calm     52 % 0.00 in
19:50 86.9 °F 67.7 °F 29.87 in Calm   1.2 mph 53 % 0.00 in
19:55 86.6 °F 67.4 °F 29.87 in Calm   1.2 mph 53 % 0.00 in
20:00 86.3 °F 67.2 °F 29.87 in SW 0.1 mph 1.2 mph 53 % 0.00 in
20:05 86.1 °F 67.5 °F 29.87 in SW 0.2 mph 1.2 mph 54 % 0.00 in
20:10 85.8 °F 67.2 °F 29.87 in WSW 0.3 mph 2.0 mph 54 % 0.00 in
20:15 85.5 °F 67.0 °F 29.87 in Calm   1.2 mph 54 % 0.00 in
20:20 85.2 °F 67.2 °F 29.87 in Calm     55 % 0.00 in
20:25 84.9 °F 66.9 °F 29.87 in WSW 0.9 mph 3.5 mph 55 % 0.00 in
20:28 84.7 °F 66.7 °F 29.87 in Calm   1.2 mph 55 % 0.00 in
20:33 84.4 °F 67.0 °F 29.87 in Calm     56 % 0.00 in
20:38 84.1 °F 67.2 °F 29.87 in Calm     57 % 0.00 in
20:43 83.8 °F 66.9 °F 29.87 in Calm     57 % 0.00 in
20:48 83.6 °F 66.8 °F 29.87 in Calm   1.2 mph 57 % 0.00 in
20:53 83.3 °F 67.0 °F 29.87 in Calm     58 % 0.00 in
20:54 83.2 °F 66.9 °F 29.87 in Calm     58 % 0.00 in
20:59 82.9 °F 66.6 °F 29.87 in Calm     58 % 0.00 in
21:04 82.7 °F 66.9 °F 29.87 in Calm     59 % 0.00 in
21:09 82.4 °F 66.6 °F 29.87 in Calm   2.3 mph 59 % 0.00 in
21:14 82.2 °F 66.4 °F 29.88 in Calm     59 % 0.00 in
21:19 81.9 °F 66.6 °F 29.88 in Calm     60 % 0.00 in
21:24 81.6 °F 66.4 °F 29.88 in Calm     60 % 0.00 in
21:29 81.4 °F 66.7 °F 29.88 in SW 0.1 mph   61 % 0.00 in
21:34 81.1 °F 66.4 °F 29.88 in Calm   1.0 mph 61 % 0.00 in
21:40 80.9 °F 66.7 °F 29.88 in Calm     62 % 0.00 in
21:45 80.6 °F 66.4 °F 29.88 in Calm   1.2 mph 62 % 0.00 in
21:50 80.4 °F 66.2 °F 29.88 in Calm     62 % 0.00 in
21:55 80.2 °F 66.0 °F 29.89 in Calm     62 % 0.00 in
22:00 80.0 °F 65.8 °F 29.89 in Calm     62 % 0.00 in
22:05 79.9 °F 66.2 °F 29.88 in Calm     63 % 0.00 in
22:10 79.7 °F 65.5 °F 29.88 in Calm     62 % 0.00 in
22:15 79.6 °F 65.9 °F 29.89 in Calm     63 % 0.00 in
22:20 79.5 °F 65.8 °F 29.89 in Calm     63 % 0.00 in
22:25 79.3 °F 65.6 °F 29.89 in Calm     63 % 0.00 in
22:30 79.2 °F 65.5 °F 29.89 in Calm     63 % 0.00 in
22:35 79.1 °F 65.9 °F 29.89 in Calm     64 % 0.00 in
22:40 79.0 °F 65.8 °F 29.88 in Calm     64 % 0.00 in
22:45 78.8 °F 65.1 °F 29.88 in Calm     63 % 0.00 in
22:50 78.7 °F 65.5 °F 29.88 in SW 0.1 mph 1.2 mph 64 % 0.00 in
22:55 78.5 °F 65.3 °F 29.88 in SW 0.1 mph 2.0 mph 64 % 0.00 in
23:00 78.4 °F 65.2 °F 29.88 in Calm   1.2 mph 64 % 0.00 in
23:05 78.3 °F 65.1 °F 29.88 in Calm     64 % 0.00 in
23:10 78.2 °F 65.0 °F 29.88 in SW 0.3 mph 1.2 mph 64 % 0.00 in
23:15 78.2 °F 65.5 °F 29.88 in SW 0.9 mph 3.5 mph 65 % 0.00 in
23:20 78.1 °F 65.4 °F 29.88 in Calm   2.3 mph 65 % 0.00 in
23:25 78.0 °F 64.8 °F 29.88 in Calm     64 % 0.00 in
23:30 78.0 °F 64.8 °F 29.88 in Calm     64 % 0.00 in
23:35 77.9 °F 65.2 °F 29.88 in Calm     65 % 0.00 in
23:41 77.9 °F 65.2 °F 29.88 in Calm   1.0 mph 65 % 0.00 in
23:46 77.8 °F 65.1 °F 29.88 in Calm   1.0 mph 65 % 0.00 in
23:51 77.8 °F 65.1 °F 29.88 in Calm     65 % 0.00 in
23:56 77.7 °F 65.0 °F 29.88 in SW 0.1 mph 1.2 mph 65 % 0.00 in
Crab Meadow Weather
Compliments of Weather Underground - 3 mb

Script developed by  Jim McMurry - jmcmurry@mwt.net Adapted for the template by  Wim van der Kuil - Leuven-Template.eu

Weather Terms: Flood Watch - Conditions are favorable for flash flooding in and close to the watch area. These watches are issued by the Weather Forecast Office in Upton and are usually for the first 12 to 24 hours of a forecast.